Weather History for Ft Lauderdale, FL

Change the Weather History Date:

Tuesday, October 19, 2010

  Actual Average Record
Temperature  
Mean Temperature 80 °F 80 °F  
Max Temperature 87 °F 86 °F 92 °F (1989)
Min Temperature 72 °F 75 °F 52 °F (1927)
Degree Days  
Heating Degree Days 0 0  
Month to date heating degree days 0 0  
Since 1 July heating degree days 0 0  
Cooling Degree Days 15 15  
Month to date cooling degree days 252 313  
Year to date cooling degree days 3737 4025  
Growing Degree Days 28 (Base 50)    
Moisture  
Dew Point 66 °F    
Average Humidity 66    
Maximum Humidity 81    
Minimum Humidity 51    
Precipitation  
Precipitation 0.00 in 0.17 in 9.20 in (1924)
Month to date precipitation 2.13 4.82  
Year to date precipitation 56.38 54.48  
Snow  
Snow 0.00 in - - ()
Month to date snowfall 0.0  
Since 1 July snowfall 0.0  
Since 1 September snowfall 0.0  
Snow Depth 0.00 in    
Sea Level Pressure  
Sea Level Pressure 29.95 in    
Wind  
Wind Speed 6 mph (East)    
Max Wind Speed 12 mph    
Max Gust Speed 12 mph    
Visibility 10 miles    
Events      
T = Trace of Precipitation, MM = Missing Value Source: NWS Daily Summary

Daily Weather History Graph

Daily Weather History Graph

Search for Another Location

Airport:

Trip Planner

Search our weather history database for the weather conditions in past years. The results will help you decide how hot, cold, wet, or windy it might be!

Date:

Astronomy

Oct. 19, 2010 Rise Set
Actual Time 7:21 AM EDT 6:49 PM EDT
Civil Twilight 6:58 AM EDT 7:12 PM EDT
Nautical Twilight 6:31 AM EDT 7:39 PM EDT
Astronomical Twilight 6:04 AM EDT 8:06 PM EDT
Moon 4:44 PM EDT (10/19) 4:21 AM EDT (10/19)
Length of Visible Light 12h 14m
Length of Day
11h 27m
Waxing Gibbous, 89% of the Moon is Illuminated
Oct 19
Waxing Gibbous
Oct 22
Full
Oct 30
Last Quarter
Nov 6
New
Nov 13
First Quarter

Hourly Weather History & Observations

Time (EDT) Temp. Heat Index Dew Point Humidity Pressure Visibility Wind Dir Wind Speed Gust Speed Precip Events Conditions
12:53 AM 75.0 °F - 62.2 °F 64% 29.96 in 10.0 mi SE 4.6 mph - N/A   Partly Cloudy
1:53 AM 75.0 °F - 62.2 °F 64% 29.94 in 10.0 mi ESE 4.6 mph - N/A   Clear
2:53 AM 75.2 °F - 62.6 °F 65% 29.94 in 10.0 mi SE 4.6 mph - N/A   Partly Cloudy
3:53 AM 74.8 °F - 63.0 °F 66% 29.94 in 10.0 mi Calm Calm - N/A   Partly Cloudy
4:53 AM 72.5 °F - 65.5 °F 79% 29.94 in 10.0 mi SE 3.5 mph - N/A   Mostly Cloudy
5:53 AM 71.6 °F - 65.3 °F 80% 29.94 in 10.0 mi SE 3.5 mph - N/A   Scattered Clouds
6:53 AM 71.6 °F - 65.5 °F 81% 29.95 in 10.0 mi SE 4.6 mph - N/A   Partly Cloudy
7:53 AM 73.6 °F - 66.6 °F 79% 29.96 in 10.0 mi SE 4.6 mph - N/A   Partly Cloudy
8:53 AM - - - N/A% 29.99 in - North - - N/A   Unknown
8:54 AM 82.2 °F 86.0 °F 69.6 °F 66% 29.98 in 10.0 mi SE 4.6 mph - N/A   Partly Cloudy
9:53 AM 82.0 °F 86.1 °F 70.3 °F 68% 29.99 in 10.0 mi SE 4.6 mph - N/A   Partly Cloudy
10:53 AM 86.9 °F 92.1 °F 70.7 °F 58% 29.99 in 10.0 mi North 4.6 mph - N/A   Partly Cloudy
11:53 AM 85.3 °F 89.1 °F 69.1 °F 58% 29.99 in 10.0 mi NE 6.9 mph - N/A   Mostly Cloudy
12:53 PM 85.3 °F 89.1 °F 69.1 °F 58% 29.96 in 10.0 mi NE 6.9 mph - N/A   Scattered Clouds
1:53 PM 86.4 °F 89.0 °F 66.7 °F 52% 29.93 in 10.0 mi East 9.2 mph - N/A   Scattered Clouds
3:53 PM 81.5 °F 84.2 °F 67.6 °F 63% 29.90 in 10.0 mi East 11.5 mph - N/A   Scattered Clouds
4:53 PM 81.0 °F 83.9 °F 68.7 °F 66% 29.90 in 10.0 mi East 9.2 mph - N/A   Scattered Clouds
5:53 PM 80.8 °F 83.6 °F 68.5 °F 66% 29.91 in 10.0 mi ENE 6.9 mph - N/A   Scattered Clouds
6:53 PM 79.9 °F - 66.7 °F 64% 29.91 in 10.0 mi ENE 4.6 mph - N/A   Scattered Clouds
7:53 PM 79.0 °F - 66.0 °F 64% 29.93 in 10.0 mi ENE 10.4 mph - N/A   Clear
8:53 PM 78.8 °F - 65.7 °F 64% 29.94 in 10.0 mi East 10.4 mph - N/A   Clear
9:53 PM 78.4 °F - 66.2 °F 66% 29.95 in 10.0 mi ENE 4.6 mph - N/A   Clear
10:53 PM 77.0 °F - 65.7 °F 68% 29.96 in 10.0 mi Calm Calm - N/A   Clear
11:53 PM 75.2 °F - 65.5 °F 72% 29.95 in 10.0 mi ESE 3.5 mph - N/A   Clear